SCP
-0 -0 -0 -0 -0 -0 -0 0 0 0 0 0 0 0 0 0 0 0 0 0 0 0 0 0 0 0 0 0 0 0 0 1
-0 0 0 0 -0 -0 -0 0 0 0 0 0 0 0 0 0 0 0 0 0 0 0 0 0 0 0 0 0 0 0 0 0
-0 0 0 0 -0 -0 -0 0 0 0 0 0 0 0 0 0 0 0 0 0 0 0 0 0 0 0 0 0 0 0 0 0
0 0 -0 -0 0 0 0 0 0 0 0 0 0 0 0 0 0 0 0 0 0 0 0 0 0 0 0 0 0 0 0 0
0 0 0 0 0 0 0 0 0 0 0 0 0 0 0 0 0 0 0 0 0 0 0 0 0 0 0 0 0 0 0 0
0 0 0 0 0 0 0 0 0 0 0 0 0 0 0 0 0 0 0 0 0 0 0 0 0 0 0 0 0 0 0 0
0 0 0 0 0 0 0 0 0 0 0 0 0 0 0 0 0 0 0 0 0 0 0 0 0 0 0 0 0 0 0 0
0 0 0 0 0 0 0 0 0 0 0 0 0 0 0 0 0 0 0 0 0 0 0 0 0 0 0 0 0 0 0 0
0 0 0 0 0 0 0 0 0 0 0 0 0 0 0 0 0 0 0 0 0 0 0 0 0 0 0 0 0 0 0 0
0 0 0 0 0 0 0 0 0 0 0 0 0 0 0 0 0 0 0 0 0 0 0 0 0 0 0 0 0 0 0 0
0 0 0 0 0 0 0 0 0 0 0 0 0 0 0 0 0 0 0 0 0 0 0 0 0 0 0 0 0 0 0 0
0 0 0 0 0 0 0 0 0 0 -0 0 0 0 0 0 0 0 0 0 0 0 0 0 0 0 0 0 0 0 0 0
0 0 0 0 0 0 0 0 0 -0 -0 -0 -0 0 0 0 0 0 0 0 0 0 0 0 0 0 0 0 0 0 0 0
0 0 0 0 0 0 0 0 -0 -0 -0 -0 -0 0 0 0 0 0 0 0 0 0 0 0 0 0 0 0 0 0 0 0
0 0 0 0 0 0 0 0 0 -0 0 0 0 0 0 0 0 0 0 0 0 0 0 0 0 0 0 0 0 0 0 0
0 0 0 0 0 0 0 0 0 0 0 0 0 0 0 0 0 0 0 0 0 0 0 0 0 0 0 0 0 0 0 0
0 0 0 0 0 0 0 0 0 0 0 0 0 0 0 0 0 0 -0 -0 0 0 0 0 0 0 0 0 0 0 0 0
0 0 0 0 0 0 0 0 0 0 0 0 0 0 0 0 0 0 0 0 0 0 -0 -0 0 0 0 0 0 0 0 0
0 0 0 0 0 0 0 0 0 0 0 0 0 0 0 0 0 0 0 0 0 -0 -0 -0 -0 -0 -0 0 0 0 0 0
0 0 0 0 0 0 0 0 0 0 0 0 0 0 -0 -0 0 0 0 0 0 -0 -0 -0 -0 -0 -0 -0 0 0 0 0
Wind_Speed_500mb
22 18 15 11 14 16 13 9 5 5 5 5 6 8 12 17 23 28 31 31 33 30 28 22 21 21 22 26 26 27 31 31
18 14 17 14 12 12 9 3 3 7 8 9 13 17 21 24 27 28 26 23 15 15 18 19 16 17 19 19 19 19 25 29
12 13 10 9 7 8 4 0 5 9 12 16 19 19 19 19 17 19 16 13 15 18 22 22 23 23 20 19 16 22 21 24
12 8 6 6 7 8 8 7 8 13 16 18 18 15 12 13 15 14 13 12 17 20 21 25 29 30 31 28 28 31 28 24
12 11 8 8 10 13 15 13 13 17 12 11 12 10 11 13 14 16 16 17 21 25 29 33 36 34 31 29 32 36 37 36
19 16 14 13 12 8 9 8 12 14 19 21 22 25 22 23 25 27 26 26 28 30 34 36 39 41 42 38 38 38 41 46
21 18 20 20 18 14 9 6 12 15 19 20 21 27 29 33 34 32 34 36 38 39 41 43 45 46 49 49 46 45 46 48
24 24 27 27 27 25 23 17 13 15 19 23 26 29 31 34 36 37 38 40 42 42 44 46 47 49 51 53 54 52 52 51
23 25 26 26 27 27 26 24 24 20 19 19 22 27 30 34 36 37 39 41 42 43 44 46 46 47 49 51 52 51 47 42
21 22 21 20 23 26 27 29 31 36 39 41 41 39 37 35 35 36 36 36 38 41 42 43 44 45 44 42 41 40 36 33
22 18 16 18 19 20 24 32 38 43 48 50 49 44 39 34 33 33 34 35 35 36 37 37 37 37 37 36 34 33 31 25
20 15 13 9 9 17 25 32 38 44 51 55 55 45 37 36 36 35 34 33 31 30 29 29 30 30 29 31 33 33 34 29
22 17 11 4 5 13 21 29 37 47 57 58 46 36 32 32 33 32 30 27 26 26 25 23 25 25 26 28 30 31 34 34
25 21 12 4 6 14 26 33 43 54 60 53 42 34 32 31 32 31 28 25 20 21 22 20 21 23 24 25 24 25 26 26
29 23 14 10 11 16 25 36 47 54 52 44 36 32 31 29 30 29 29 24 21 17 18 18 19 22 21 20 21 23 25 25
30 25 19 14 10 15 25 36 44 49 44 36 32 28 27 27 30 30 26 23 22 15 13 15 18 20 20 20 21 22 25 25
35 32 24 17 11 15 25 35 42 42 34 32 27 24 25 28 32 36 38 36 33 26 20 18 20 20 23 25 25 25 25 24
38 35 28 19 11 16 25 33 37 30 29 29 28 26 25 29 31 36 37 38 38 33 28 27 28 30 31 32 29 29 25 23
41 38 30 20 11 15 23 29 25 20 22 26 27 25 22 26 27 31 34 34 37 40 38 33 30 30 35 37 36 35 35 35
37 36 29 18 10 13 20 23 13 14 19 21 17 23 24 24 26 27 28 29 29 29 28 26 24 23 27 31 33 37 38 39
Wind_Direction_500mb
133 137 125 115 111 162 175 176 165 190 223 271 282 283 292 299 304 304 300 300 300 302 306 316 325 326 319 290 283 290 286 280
120 112 92 89 79 80 87 114 230 233 241 255 269 279 289 293 297 298 296 294 305 330 338 336 341 353 345 330 300 308 299 285
94 77 70 65 68 59 71 80 253 262 271 276 282 284 283 288 293 297 303 315 320 320 326 327 320 331 330 325 333 339 315 283
85 60 35 2 347 332 338 314 299 296 297 296 290 285 287 293 292 292 298 320 327 323 323 316 318 320 313 311 309 301 297 299
85 70 53 30 10 354 333 325 333 326 322 318 303 296 312 310 313 309 304 305 314 318 318 317 315 315 315 308 298 296 290 284
88 82 67 54 42 20 14 355 333 324 331 331 327 321 321 323 322 322 321 319 319 317 315 313 312 312 312 311 307 300 292 289
88 80 75 70 64 54 33 16 344 336 335 330 326 326 322 317 316 315 315 316 317 316 315 313 311 309 308 307 305 301 296 290
98 93 87 82 75 67 61 46 31 356 338 329 324 318 316 314 314 316 315 314 312 313 312 309 307 307 306 303 301 298 296 295
112 101 92 84 77 69 60 52 40 25 9 352 337 329 319 313 312 313 312 312 313 312 313 314 315 315 316 316 314 313 309 303
126 107 92 80 69 57 47 35 25 15 8 2 353 341 331 324 322 321 321 321 320 322 323 324 325 327 330 332 333 334 331 330
140 126 103 78 64 56 41 29 18 8 2 356 350 340 333 330 330 331 330 331 330 329 332 335 339 344 350 356 3 7 2 358
150 143 121 97 67 40 25 18 9 1 356 350 346 343 342 341 344 346 348 344 345 346 349 354 1 10 17 21 21 21 17 6
171 168 154 128 28 15 7 4 1 358 353 351 351 350 350 349 350 353 355 358 357 360 3 10 17 29 30 30 25 21 22 26
182 190 185 221 302 346 354 355 359 356 351 351 356 357 355 354 354 358 2 4 4 9 16 24 30 33 33 32 21 17 15 22
188 197 200 241 288 341 344 356 357 351 348 352 358 0 359 3 3 360 0 359 3 11 24 33 30 24 22 18 11 6 6 8
191 200 212 239 282 324 348 352 350 346 348 356 0 3 9 14 14 13 8 4 3 10 27 28 22 19 18 13 5 1 360 357
192 204 217 234 273 329 343 349 349 350 2 6 11 27 30 35 36 40 43 41 44 45 43 36 35 35 31 28 24 21 18 20
192 204 214 230 269 320 340 347 353 5 19 35 46 45 42 51 48 46 49 51 53 54 59 61 61 56 45 33 28 24 22 21
193 202 210 227 268 320 340 350 1 23 46 52 47 36 52 60 52 48 52 54 56 58 62 63 61 48 35 33 39 43 45 44
188 199 209 222 262 318 342 353 14 50 63 60 43 62 64 48 44 47 47 47 45 44 44 42 31 28 31 35 42 42 40 37
Wind_Speed_850mb
22 18 15 11 14 16 13 9 5 5 5 5 6 8 12 17 23 28 31 31 33 30 28 22 21 21 22 26 26 27 31 31
18 14 17 14 12 12 9 3 3 7 8 9 13 17 21 24 27 28 26 23 15 15 18 19 16 17 19 19 19 19 25 29
12 13 10 9 7 8 4 0 5 9 12 16 19 19 19 19 17 19 16 13 15 18 22 22 23 23 20 19 16 22 21 24
12 8 6 6 7 8 8 7 8 13 16 18 18 15 12 13 15 14 13 12 17 20 21 25 29 30 31 28 28 31 28 24
12 11 8 8 10 13 15 13 13 17 12 11 12 10 11 13 14 16 16 17 21 25 29 33 36 34 31 29 32 36 37 36
19 16 14 13 12 8 9 8 12 14 19 21 22 25 22 23 25 27 26 26 28 30 34 36 39 41 42 38 38 38 41 46
21 18 20 20 18 14 9 6 12 15 19 20 21 27 29 33 34 32 34 36 38 39 41 43 45 46 49 49 46 45 46 48
24 24 27 27 27 25 23 17 13 15 19 23 26 29 31 34 36 37 38 40 42 42 44 46 47 49 51 53 54 52 52 51
23 25 26 26 27 27 26 24 24 20 19 19 22 27 30 34 36 37 39 41 42 43 44 46 46 47 49 51 52 51 47 42
21 22 21 20 23 26 27 29 31 36 39 41 41 39 37 35 35 36 36 36 38 41 42 43 44 45 44 42 41 40 36 33
22 18 16 18 19 20 24 32 38 43 48 50 49 44 39 34 33 33 34 35 35 36 37 37 37 37 37 36 34 33 31 25
20 15 13 9 9 17 25 32 38 44 51 55 55 45 37 36 36 35 34 33 31 30 29 29 30 30 29 31 33 33 34 29
22 17 11 4 5 13 21 29 37 47 57 58 46 36 32 32 33 32 30 27 26 26 25 23 25 25 26 28 30 31 34 34
25 21 12 4 6 14 26 33 43 54 60 53 42 34 32 31 32 31 28 25 20 21 22 20 21 23 24 25 24 25 26 26
29 23 14 10 11 16 25 36 47 54 52 44 36 32 31 29 30 29 29 24 21 17 18 18 19 22 21 20 21 23 25 25
30 25 19 14 10 15 25 36 44 49 44 36 32 28 27 27 30 30 26 23 22 15 13 15 18 20 20 20 21 22 25 25
35 32 24 17 11 15 25 35 42 42 34 32 27 24 25 28 32 36 38 36 33 26 20 18 20 20 23 25 25 25 25 24
38 35 28 19 11 16 25 33 37 30 29 29 28 26 25 29 31 36 37 38 38 33 28 27 28 30 31 32 29 29 25 23
41 38 30 20 11 15 23 29 25 20 22 26 27 25 22 26 27 31 34 34 37 40 38 33 30 30 35 37 36 35 35 35
37 36 29 18 10 13 20 23 13 14 19 21 17 23 24 24 26 27 28 29 29 29 28 26 24 23 27 31 33 37 38 39
Wind_Direction_850mb
133 137 125 115 111 162 175 176 165 190 223 271 282 283 292 299 304 304 300 300 300 302 306 316 325 326 319 290 283 290 286 280
120 112 92 89 79 80 87 114 230 233 241 255 269 279 289 293 297 298 296 294 305 330 338 336 341 353 345 330 300 308 299 285
94 77 70 65 68 59 71 80 253 262 271 276 282 284 283 288 293 297 303 315 320 320 326 327 320 331 330 325 333 339 315 283
85 60 35 2 347 332 338 314 299 296 297 296 290 285 287 293 292 292 298 320 327 323 323 316 318 320 313 311 309 301 297 299
85 70 53 30 10 354 333 325 333 326 322 318 303 296 312 310 313 309 304 305 314 318 318 317 315 315 315 308 298 296 290 284
88 82 67 54 42 20 14 355 333 324 331 331 327 321 321 323 322 322 321 319 319 317 315 313 312 312 312 311 307 300 292 289
88 80 75 70 64 54 33 16 344 336 335 330 326 326 322 317 316 315 315 316 317 316 315 313 311 309 308 307 305 301 296 290
98 93 87 82 75 67 61 46 31 356 338 329 324 318 316 314 314 316 315 314 312 313 312 309 307 307 306 303 301 298 296 295
112 101 92 84 77 69 60 52 40 25 9 352 337 329 319 313 312 313 312 312 313 312 313 314 315 315 316 316 314 313 309 303
126 107 92 80 69 57 47 35 25 15 8 2 353 341 331 324 322 321 321 321 320 322 323 324 325 327 330 332 333 334 331 330
140 126 103 78 64 56 41 29 18 8 2 356 350 340 333 330 330 331 330 331 330 329 332 335 339 344 350 356 3 7 2 358
150 143 121 97 67 40 25 18 9 1 356 350 346 343 342 341 344 346 348 344 345 346 349 354 1 10 17 21 21 21 17 6
171 168 154 128 28 15 7 4 1 358 353 351 351 350 350 349 350 353 355 358 357 360 3 10 17 29 30 30 25 21 22 26
182 190 185 221 302 346 354 355 359 356 351 351 356 357 355 354 354 358 2 4 4 9 16 24 30 33 33 32 21 17 15 22
188 197 200 241 288 341 344 356 357 351 348 352 358 0 359 3 3 360 0 359 3 11 24 33 30 24 22 18 11 6 6 8
191 200 212 239 282 324 348 352 350 346 348 356 0 3 9 14 14 13 8 4 3 10 27 28 22 19 18 13 5 1 360 357
192 204 217 234 273 329 343 349 349 350 2 6 11 27 30 35 36 40 43 41 44 45 43 36 35 35 31 28 24 21 18 20
192 204 214 230 269 320 340 347 353 5 19 35 46 45 42 51 48 46 49 51 53 54 59 61 61 56 45 33 28 24 22 21
193 202 210 227 268 320 340 350 1 23 46 52 47 36 52 60 52 48 52 54 56 58 62 63 61 48 35 33 39 43 45 44
188 199 209 222 262 318 342 353 14 50 63 60 43 62 64 48 44 47 47 47 45 44 44 42 31 28 31 35 42 42 40 37